This is the latest recevied weather packets stored in our database for station/object N7WSS. If no packets are shown the sender has not sent any weather packets the latest 10 day(s).
| Time | Temp. | Humidity | Pressure | Rain* | Wind** | Luminosity | Snow |
|---|---|---|---|---|---|---|---|
| 1788130489 | 36.67° C | 30% | 1011.4 hPa | 0 mm | - | - | - |
| 1788130188 | 37.22° C | 29% | 1011.1 hPa | 0 mm | - | - | - |
| 1788129887 | 37.22° C | 29% | 1011.2 hPa | 0 mm | - | - | - |
| 1788129584 | 37.22° C | 29% | 1011.2 hPa | 0 mm | - | - | - |
| 1788129280 | 38.33° C | 29% | 1011.5 hPa | 0 mm | - | - | - |
| 1788128979 | 37.78° C | 29% | 1011.5 hPa | 0 mm | - | - | - |
| 1788128674 | 37.78° C | 29% | 1011.5 hPa | 0 mm | - | - | - |
| 1788128370 | 37.78° C | 29% | 1011.8 hPa | 0 mm | - | - | - |
| 1788128067 | 37.78° C | 29% | 1011.6 hPa | 0 mm | - | - | - |
| 1788127762 | 37.78° C | 28% | 1011.9 hPa | 0 mm | - | - | - |
| 1788127462 | 36.67° C | 29% | 1011.8 hPa | 0 mm | - | - | - |
| 1788127159 | 37.22° C | 28% | 1012.3 hPa | 0 mm | - | - | - |
| 1788126854 | 37.22° C | 28% | 1012.1 hPa | 0 mm | - | - | - |
| 1788126549 | 37.22° C | 28% | 1012.1 hPa | 0 mm | - | - | - |
| 1788126239 | 37.78° C | 28% | 1012.4 hPa | 0 mm | - | - | - |
| 1788125939 | 37.22° C | 28% | 1012.5 hPa | 0 mm | - | - | - |
| 1788125634 | 37.22° C | 28% | 1012.4 hPa | 0 mm | - | - | - |
| 1788125330 | 37.22° C | 30% | 1012.5 hPa | 0 mm | - | - | - |
| 1788125026 | 37.78° C | 30% | 1012.5 hPa | 0 mm | - | - | - |
| 1788124725 | 37.22° C | 30% | 1012.5 hPa | 0 mm | - | - | - |
| 1788124424 | 37.22° C | 31% | 1012.5 hPa | 0 mm | - | - | - |
| 1788124120 | 37.22° C | 32% | 1012.6 hPa | 0 mm | - | - | - |
| 1788123819 | 37.22° C | 32% | 1012.9 hPa | 0 mm | - | - | - |
| 1788123517 | 37.22° C | 31% | 1012.9 hPa | 0 mm | - | - | - |
| 1788123217 | 37.22° C | 32% | 1013 hPa | 0 mm | - | - | - |
* Rain latest hour (hover to see other rain measurements)
** Current wind speed in m/s (hover to see current wind gust speed)